Showing default

OPTUS 10, 40146

Orbit data source: Space-Track

OPTUS 10, 40146 is a payload satellite owned by SingTel Optus (AU) in GEO that was launched on Thu, 11 Sep 2014 UTC via an ARIANE 5ECA launch vehicle from the French Guiana (FRGUI). Payload-class satellites include a variety of spacecraft equipped with specific instruments for various scientific and technological missions. These include communications satellites like Starlink; space stations such as the ISS; scientific satellites like the Hubble; Earth observation satellites from companies like Planet Labs, Umbra, and HawkEye 360; GPS; miniature CubeSats for education and research; and military/defense satellites.

Not visible in the next 10 days
Identifier
40146, 2014-054A
Orbit
GEO
Country
Flag of AUAU / AUS
Related business
Manufacturer
SS/Loral (MDA)
Mission
Operational Commercial Communications
Bus & Motor
LS-1300LL, R-4D
Mass
3,970 kg wet, ~2,000 kg dry
Launch date (UTC)
2014-09-11 (11 years ago)
Launch vehicle
ARIANE 5ECA
Launch site
French Guiana (FRGUI)
Object type
Payload
Rocket body
Debris
Shape & HBR
Box + 2 Pan, 12.3 m
Radar Cross Section
38.560 m², Large (>1 m²)

Expand to show TLE details & history
Last TLE update: 12 hours ago

TLE from 12 hours ago
0 OPTUS 10
1 40146U 14054A   26061.86364102 -.00000164  00000-0  00000+0 0  9995
2 40146   0.0297 263.5750 0002089  81.1283 282.8275  1.00270864 41967
Epoch: 2026-03-02T20:43Z
TLE epoch observation values (Epoch: 2026-03-02T20:43:38.584Z)
Latitude
0.01567°
Longitude
155.98207°
Altitude
35,784.359 km
Speed
3.075 km/s
True Right ascension
17h 50m 10s
True Declination
0° 00' 56"
Sunlit
Object was in daylight at epoch
Visualization orbit readout
Latitude
Unknown
Longitude
Unknown
Altitude
Unknown
Speed
Unknown
Apparent Right ascension
Unknown
Apparent Declination
Unknown
Sunlit
N/A
Visualization observer readout
Local Sidereal Time
12:42:17
Azimuth
Unknown
Elevation
Unknown
Doppler factor
Unknown
Orbital elements
Apogee altitude
35,796.732 km
Perigee altitude
35,779.115 km
Semi-major axis
42,166.061 km
Eccentricity
0.00021
Inclination
0.0297°
RAAN
263.575°
Arg. of periapsis
81.1283°
True anomaly
282.80416°
Mean anomaly
282.8275°
Eccentric anomaly
282.81583°
Mean motion
0.25067 °/min
Orbital period
1,436.16 mins
BSTAR
0
Loading maneuver chart data...
Computing Atmospheric mass density...
Loading historical data...
Loading historical data...
Loading historical data...
Loading historical data...
Loading historical data...
Loading historical data...
Loading historical data...
Other satellites on launch #54 in the year 2014 (2014-09-11 UTC)

Documentation

Showing up to 5 results
|